Regional Weather Roundup
Issued by NWS

Home | Current Version | Previous Version | Text Only | Print | Product List | Glossary Off
Versions: 1 2 3 4 5 6 7 8 9 10 11 12 13 14 15 16 17 18 19 20 21 22 23 24 25 26 27 28 29 30 31 32 33 34 35 36 37 38 39 40 41 42 43 44 45 46 47 48 49 50

000
ASUS43 KDMX 260904
RWRIA

WEATHER ROUNDUP FOR IOWA
NATIONAL WEATHER SERVICE DES MOINES IA
  ISSUED BY NWS QUAD CITIES IA IL
300 AM CST MON JAN 26 2015

NOTE: "FAIR" INDICATES FEW OR NO CLOUDS BELOW 12,000 FEET WITH NO
SIGNIFICANT WEATHER AND/OR OBSTRUCTIONS TO VISIBILITY.

* - THESE STATIONS ARE NOT NWS STATIONS...THUS NOT UNDER NWS
QUALITY CONTROL.  THEY ALSO DO NOT REPORT WEATHER SUCH
AS PRECIPITATION OR FOG.

IAZ001>003-012>014-020>022-031>034-043>046-261000-
   NORTHWEST IOWA

CITY           SKY/WX    TMP DP  RH WIND       PRES   REMARKS
CARROLL *      MOCLDY    30  30 100 SW13      29.95F WCI  20
CHEROKEE *     MOSUNNY   31  31 100 SW7       29.92F WCI  24
DENNISON *     MOCLDY    30  30 100 S8        29.93F WCI  23
LE MARS *      CLEAR     32  30  93 SW7       29.93R WCI  26
ORANGE CITY *  PTCLDY    34  30  86 SW10      29.90S WCI  26
SIOUX CITY     CLEAR     32  29  88 S7        29.93F WCI  26
SPENCER        MOCLDY    33  30  88 SW10      29.92R WCI  25
$$

IAZ055>058-069>071-079>083-090>094-261000-
   SOUTHWEST IOWA

CITY           SKY/WX    TMP DP  RH WIND       PRES   REMARKS
ATLANTIC *     CLOUDY    28  27  93 S7        30.00F WCI  21
AUDUBON *      PTCLDY    30  27  86 S10G16    29.99F WCI  21
CLARINDA *     PTCLDY    23  23 100 SW3       30.05F
COUNCIL BLFS * CLEAR     28  28 100 S8        29.97F WCI  20
CRESTON *      CLOUDY    30  28  93 SW7       30.02S WCI  23
HARLAN *       CLEAR     28  28 100 S10       30.02F WCI  19
LAMONI         CLOUDY    30  26  85 SW6       30.03F WCI  24
$$

IAZ047>049-059>061-072>074-084-261000-
   CENTRAL IOWA

CITY           SKY/WX    TMP DP  RH WIND       PRES   REMARKS
AMES           CLOUDY    30  25  81 SW12      29.95F WCI  20
ANKENY *       CLOUDY    32  27  80 SW9       29.98F WCI  24
BOONE *        CLOUDY    30  28  93 SW10G17   29.93F WCI  21
CHARITON *     CLOUDY    30  27  86 SW7       30.02S WCI  23
DES MOINES     CLOUDY    32  26  78 SW8       30.01F WCI  25
GRINNELL *     PTSUNNY   27  24  88 SW5       30.01F WCI  22
KNOXVILLE *    CLOUDY    30  27  86 W5        30.01S WCI  25
MARSHALLTOWN   CLOUDY    28  25  88 S3        29.97F
PELLA *        MOCLDY    31  26  82 CALM      30.03F
PERRY *          N/A     32  29  91 S13       29.97F WCI  22
$$

IAZ004>006-015-016-023>025-035-036-261000-
   NORTH CENTRAL IOWA

CITY           SKY/WX    TMP DP  RH WIND       PRES   REMARKS
ALGONA *       CLOUDY    30  30 100 S13       29.92F WCI  20
CLARION *      CLOUDY    30  28  93 SW10      29.95R WCI  21
ESTHERVILLE    CLOUDY    31  29  92 SW10      29.90S WCI  22
FORT DODGE *   CLOUDY    30  27  86 S8        29.97R WCI  23
MASON CITY     CLOUDY    28  24  85 S13       29.92F WCI  17
WEBSTER CITY * CLOUDY    30  30 100 SW10      29.94F WCI  21
IOWA FALLS *   CLOUDY    28  25  88 S5        29.98F WCI  23
$$

IAZ007>011-017>019-026>030-037>042-050>054-066-261000-
   NORTHEAST IOWA

CITY           SKY/WX    TMP DP  RH WIND       PRES   REMARKS
CEDAR RAPIDS   CLOUDY    22  16  78 S6        30.00F WCI  14
CHARLES CITY * CLOUDY    27  25  93 S9        29.95F WCI  17
CLINTON *      FAIR       9   3  78 CALM      30.04F
DECORAH *      CLOUDY    23  16  74 S9        29.94F WCI  13
DUBUQUE        MOCLDY    10   6  84 CALM      29.99F
MONTICELLO *   CLOUDY    21  18  86 SE5       30.01F WCI  15
OELWEIN *      CLOUDY    23  18  80 S14       29.98F WCI  11
WATERLOO       CLOUDY    24  20  84 S8        29.99S WCI  15
$$

IAZ064-065-067-068-078-261000-
   EAST CENTRAL IOWA

CITY           SKY/WX    TMP DP  RH WIND       PRES   REMARKS
DAVENPORT      CLEAR     10   5  80 W3        30.03F
IOWA CITY      CLOUDY    21  15  78 SE3       30.04F
MT. PLEASANT * CLOUDY    23  17  76 CALM      30.03F
MUSCATINE *    CLOUDY    21  16  79 CALM      30.04F
QUAD CITIES    CLEAR     13  10  88 W5        30.03F WCI   5
$$

IAZ062-063-075>077-085>089-095>099-261000-
   SOUTHEAST IOWA

CITY           SKY/WX    TMP DP  RH WIND       PRES   REMARKS
BURLINGTON     CLOUDY    22  17  81 CALM      30.03F
FAIRFIELD *    CLOUDY    25  21  86 SE5       30.03F WCI  19
FORT MADISON * CLOUDY    25  19  80 CALM      30.04F
KEOKUK *       CLOUDY    25  19  80 CALM      30.04F
OTTUMWA        CLOUDY    28  26  92 SE3       30.02F
WASHINGTON *   CLOUDY    23  19  86 S5        30.03F WCI  17
$$

ABBREVIATIONS USED IN REMARKS
   TC - TEMPERATURES IN CELSIUS
  WCI - WIND CHILL INDEX
   HX - HEAT INDEX
  VSB - VISIBILITY
$$


USA.gov is the U.S. government's official web portal to all federal, state and local government web resources and services.